FENGYUN 1C DEB, 30178

Orbit data source: Space-Track

FENGYUN 1C DEB, 30178 is space debris in SSO originally from a launch on Mon, 10 May 1999 UTC launched from the Taiyaun Space Center, China (TSC). Fengyun 1C debris stems from the Chinese weather satellite Fengyun-1C, which was intentionally destroyed by a Chinese anti-satellite missile in 2007. This event dramatically increased the amount of space debris, with thousands of trackable fragments posing hazards to satellites and human spaceflight. The Fengyun 1C debris cloud has become a focal point in discussions about space sustainability and the need for international regulations to prevent the creation of new debris.

Loading next visibility...
Identifier
30178, 1999-025UK
Orbit
SSO
Country
Flag of CNCN / PRC
Related business
Manufacturer
Unknown
Mission
Spacecraft
Bus & Motor
Unknown
Mass
Unknown
Launch date (UTC)
1999-05-10 (27 years ago)
Launch vehicle
Unknown
Launch site
Taiyaun Space Center, China (TSC)
Object type
Payload
Rocket body
Debris
Shape & HBR
Unknown shape, 0.1 m
Radar Cross Section
Medium (>0.1 m² and <1 m²)

Expand to show TLE details & history
Last TLE update: 10 hours ago

TLE from 10 hours ago
0 FENGYUN 1C DEB
1 30178U 99025UK  26164.72597860  .00001614  00000-0  17410-2 0  9994
2 30178 102.2562  88.5451 0284299  69.6597   0.2842 13.59314300956573
Epoch: 2026-06-13T17:25Z
TLE epoch observation values (Epoch: 2026-06-13T17:25:24.551Z)
Latitude
66.73171°
Longitude
-105.00935°
Altitude
838.663 km
Speed
7.545 km/s
True Right ascension
03h 53m 31s
True Declination
66° 36' 29"
Sunlit
Object was in daylight at epoch
Visualization orbit readout
Latitude
Unknown
Longitude
Unknown
Altitude
Unknown
Speed
Unknown
Apparent Right ascension
Unknown
Apparent Declination
Unknown
Sunlit
N/A
Visualization observer readout
Local Sidereal Time
14:18:04
Azimuth
Unknown
Elevation
Unknown
Doppler factor
Unknown
Orbital elements
Apogee altitude
1,246.392 km
Perigee altitude
824.847 km
Semi-major axis
7,413.756 km
Eccentricity
0.02843
Inclination
102.2562°
RAAN
88.5451°
Arg. of periapsis
69.6597°
True anomaly
0.30095°
Mean anomaly
0.2842°
Eccentric anomaly
0.29252°
Mean motion
3.40005 °/min
Orbital period
105.88 mins
BSTAR
0.001741
Loading maneuver chart data...
Computing Atmospheric mass density...
Loading historical data...
Loading historical data...
Loading historical data...
Loading historical data...
Loading historical data...
Loading historical data...
Loading historical data...

Documentation

Showing up to 5 results
|